Location: Goettingen
(51.5300°N, 9.9433°E)
Time: 01:37:55
(UTC+02:00)

ISS - Visible Passes

Search period start: 02 October 2022 00:00
Search period end: 12 October 2022 00:00
Orbit: 416 x 420 km, 51.6° (Epoch: 01 October)

Date Brightness Start Highest point End Pass type
(mag) Time Alt. Az. Time Alt. Az. Time Alt. Az.
02 Oct -2.5 19:43:31 10° W 19:46:40 36° SSW 19:49:48 10° SE visible
03 Oct -1.0 20:33:23 10° WSW 20:35:07 13° SW 20:36:51 10° S visible
04 Oct -1.3 19:45:07 10° W 19:47:37 19° SW 19:50:07 10° S visible
